Bloomington, IL

3:16 AM CDT on May 27, 2017 (GMT -0500)
Central Ill Regional

Weather History for KBMI - September, 2012

Change the Weather History Date:

Wednesday, September 19, 2012

  Actual Average Record
Temperature  
Mean Temperature 56 °F -  
Max Temperature 72 °F 85 °F 102 °F (2014)
Min Temperature 41 °F 65 °F 41 °F (2012)
Degree Days  
Heating Degree Days 8    
Growing Degree Days 6 (Base 50)    
Moisture  
Dew Point 40 °F    
Average Humidity 55    
Maximum Humidity 79    
Minimum Humidity 33    
Precipitation  
Precipitation 0.00 in - - ()
Sea Level Pressure  
Sea Level Pressure 30.02 in    
Wind  
Wind Speed 13 mph (SSW)    
Max Wind Speed 29 mph    
Max Gust Speed -    
Visibility 10 miles    
Events Rain    
Averages and records for this station are not official NWS values.
T = Trace of Precipitation, MM = Missing Value Source: NWS Daily Summary

Daily Weather History Graph

Daily Weather History Graph

Search for Another Location

Airport or City:

Trip Planner

Search our weather history database for the weather conditions in past years. The results will help you decide how hot, cold, wet, or windy it might be!

Date:

Astronomy

Sep. 19, 2012 Rise Set
Actual Time 6:40 AM CDT 6:57 PM CDT
Civil Twilight 6:13 AM CDT 7:24 PM CDT
Nautical Twilight 5:41 AM CDT 7:56 PM CDT
Astronomical Twilight 5:08 AM CDT 8:28 PM CDT
Moon 10:51 AM CDT (9/19) 9:05 PM CDT (9/19)
Length of Visible Light 13h 10m
Length of Day
12h 16m
Waxing Crescent, 17% of the Moon is Illuminated
Sep 19
Waxing Crescent
Sep 22
First Quarter
Sep 29
Full
Oct 8
Last Quarter
Oct 15
New

Hourly Weather History & Observations

Time (CDT) Temp. Windchill Dew Point Humidity Pressure Visibility Wind Dir Wind Speed Gust Speed Precip Events Conditions
12:56 AM 45.9 °F 42.9 °F 37.9 °F 74% 30.09 in 10.0 mi WSW 5.8 mph - N/A   Clear
1:56 AM 45.0 °F 41.8 °F 36.0 °F 71% 30.09 in 10.0 mi SW 5.8 mph - N/A   Clear
2:56 AM 43.0 °F 40.3 °F 34.9 °F 73% 30.08 in 10.0 mi SW 4.6 mph - 0.00 in   Clear
3:56 AM 41.9 °F 39.0 °F 34.9 °F 76% 30.08 in 10.0 mi SSW 4.6 mph - N/A   Clear
4:56 AM 41.9 °F 38.2 °F 34.9 °F 76% 30.10 in 10.0 mi SSW 5.8 mph - N/A   Clear
5:56 AM 41.0 °F 37.1 °F 34.9 °F 79% 30.10 in 10.0 mi SSW 5.8 mph - N/A   Clear
6:56 AM 41.0 °F 35.8 °F 34.9 °F 79% 30.13 in 10.0 mi SSW 8.1 mph - N/A   Clear
8:56 AM 52.9 °F - 41.0 °F 64% 30.13 in 10.0 mi SSW 11.5 mph - N/A   Clear
9:56 AM 59.9 °F - 38.8 °F 46% 30.12 in 10.0 mi SW 19.6 mph - N/A   Clear
10:56 AM 63.0 °F - 39.9 °F 43% 30.09 in 10.0 mi SSW 21.9 mph - N/A   Clear
11:56 AM 65.8 °F - 38.8 °F 37% 30.06 in 10.0 mi SSW 23.0 mph - N/A   Clear
12:56 PM 68.9 °F - 38.8 °F 33% 30.04 in 10.0 mi South 26.5 mph - 0.00 in Rain Light Rain
1:56 PM 70.9 °F - 41.0 °F 34% 30.01 in 10.0 mi South 23.0 mph - N/A   Clear
3:56 PM 72.0 °F - 41.0 °F 33% 29.95 in 10.0 mi SSW 26.5 mph - 0.00 in   Clear
4:56 PM 70.9 °F - 43.0 °F 37% 29.92 in 10.0 mi South 28.8 mph - N/A   Clear
5:56 PM 68.9 °F - 43.9 °F 40% 29.92 in 10.0 mi SSW 24.2 mph - N/A   Clear
6:56 PM 63.9 °F - 43.0 °F 47% 29.92 in 10.0 mi SSW 19.6 mph - N/A   Clear
7:56 PM 61.9 °F - 43.9 °F 52% 29.93 in 10.0 mi SSW 18.4 mph - N/A   Clear
8:56 PM 59.9 °F - 43.9 °F 55% 29.93 in 10.0 mi SSW 17.3 mph - N/A   Clear
9:56 PM 59.9 °F - 43.9 °F 55% 29.93 in 10.0 mi SSW 21.9 mph - N/A   Clear
10:56 PM 59.9 °F - 45.0 °F 58% 29.92 in 10.0 mi SSW 23.0 mph - 0.00 in   Clear
11:56 PM 61.0 °F - 45.9 °F 58% 29.91 in 10.0 mi SSW 18.4 mph - 0.00 in Rain Light Rain